Regional Weather Roundup
Issued by NWS

Home | Current Version | Previous Version | Text Only | Print | Product List | Glossary On
Versions: 1 2 3 4 5 6 7 8 9 10 11 12 13 14 15 16 17 18 19 20 21 22 23 24 25 26 27 28 29 30 31 32 33 34 35 36 37 38 39 40 41 42 43 44 45 46 47 48 49 50
000
ASUS43 KDTX 221010
RWRMI
MICHIGAN HOURLY REGIONAL WEATHER ROUNDUP
NATIONAL WEATHER SERVICE DETROIT/PONTIAC MI
600 AM EDT SUN OCT 22 2017

NOTE: "FAIR" INDICATES FEW OR NO CLOUDS BELOW 12,000 FEET WITH NO
SIGNIFICANT WEATHER AND/OR OBSTRUCTION TO VISIBILITY.

MIZ047>049-052>055-059>063-066>070-074>076-081>083-221100-
SOUTHEAST LOWER MICHIGAN

CITY           SKY/WX    TMP DP  RH WIND       PRES   REMARKS
ADRIAN         PTCLDY    52  46  80 SE5       30.15F
ALMA           CLEAR     56  46  67 S5        30.08S
ANN ARBOR      PTCLDY    43  42  97 CALM      30.15S
BAD AXE        CLEAR     56  47  69 S7        30.14S
CARO           CLEAR     59  46  60 S3        30.12S
DETROIT CITY   PTCLDY    54  52  93 S5        30.17F
DETROIT        MOCLDY    54  49  83 SE3       30.17F
FLINT          CLEAR     60  46  59 S8        30.13S
GROSSE ILE     CLEAR     58  55  88 S6        30.16S
HILLSDALE      PTCLDY    55  45  67 SE8       30.12S
HOWELL         CLEAR     55  47  76 SE7       30.13S

CITY           SKY/WX    TMP DP  RH WIND       PRES   REMARKS
JACKSON        CLEAR     57  46  66 SE7       30.12F
LAMBERTVILLE   PTCLDY    55  48  78 SE3       30.15F
LANSING        CLOUDY    60  45  57 S9        30.10F
LAPEER         FAIR      58  46  65 S6        30.15S
MASON          PTCLDY    58  47  67 S8        30.11F
MONROE         CLOUDY    55  49  80 CALM      30.15S
MT. CLEMENS    PTCLDY    51  51 100 SE5       30.15F
PONTIAC        PTCLDY    52  48  86 SE5       30.15F
PORT HOPE        N/A     59  49  69 SE6       30.11S
PORT HURON     CLEAR     52  50  93 CALM      30.17F
TRI CITIES     CLEAR     59  49  69 S7        30.09F
MIDLAND        FAIR      60  47  61 S6        30.07F
TROY           PTCLDY    53  49  86 CALM      30.18S
SAGINAW HB     CLEAR     59  46  63 S6        30.09F
$$
MIZ043>046-050>051-056>058-064>065-071>073-077>080-221100-
SOUTHWEST LOWER MICHIGAN

CITY           SKY/WX    TMP DP  RH WIND       PRES   REMARKS
BATTLE CREEK   CLEAR     60  47  61 S12       30.07F
BENTON HARBOR  MOCLDY    62  49  62 SE10      30.00F
BIG RAPIDS     PTCLDY    56  47  70 SE6       30.03S
COLDWATER      CLEAR     60  45  58 SE8       30.09F
FREMONT        FAIR      61  50  68 S7        30.00F
HOLLAND        CLEAR     63  51  65 S10       30.02F
GRAND RAPIDS   PTCLDY    59  51  75 SE7       30.04F
IONIA          FAIR      58  47  66 SE9       30.06F
KALAMAZOO      CLEAR     61  45  55 S6        30.07S
LUDINGTON      PTCLDY    65  51  59 S10G18    29.95S
MARSHALL       CLEAR     58  46  63 SE6       30.09F
MOUNT PLEASANT CLEAR     60  46  59 SE7       30.06S
MUSKEGON       MOCLDY    67  52  58 S13G22    29.99F
SOUTH HAVEN    PTCLDY    63  49  60 SE6       30.01F
$$
MIZ016>042-221100-
NORTHERN LOWER MICHIGAN

CITY           SKY/WX    TMP DP  RH WIND       PRES   REMARKS
ALPENA         CLOUDY    58  51  78 SE7       30.07S
BEAVER ISLAND  CLEAR     64  54  70 S9G17     29.94S
BELLAIRE       PTCLDY    63  49  61 S7        29.98F
CADILLAC       CLEAR     61  48  62 S8        30.01F
CHARLEVOIX     CLEAR     64  52  65 SE7       29.99F
FRANKFORT      MOCLDY    66  54  63 SE12      29.94F
GAYLORD        CLEAR     58  47  66 S12       30.01F
GRAYLING       CLEAR     57  47  67 S6        30.04F
HARBOR SPRINGS PTCLDY    64  50  60 SW8       29.97F
HOUGHTON LAKE  CLEAR     57  46  66 S7        30.06F
MANISTEE       PTCLDY    62  53  72 SE6       29.96F
OSCODA         PTCLDY    60  51  70 S12       30.09S
PELLSTON       CLEAR     64  52  64 S9        29.98F
ROGERS CITY    CLOUDY    61  49  65 SE8       30.04F
TRAVERSE CITY  CLEAR     65  52  62 SE6       29.96F
$$
MIZ007>008-015-221100-
EASTERN UPPER MICHIGAN

CITY           SKY/WX    TMP DP  RH WIND       PRES   REMARKS
KINROSS        CLEAR     56  50  80 SE10      29.99F
MACKINAC ISLAN CLEAR     64  49  58 S10       29.97F
NEWBERRY       CLOUDY    61  56  82 S10G18    29.93S
S. S. MARIE    MOCLDY    59  51  75 SE5       29.98F
MUNISING         N/A     63  58  83 S12G23    29.83F
$$
MIZ004>006-011>014-085-221100-
CENTRAL UPPER MICHIGAN

CITY           SKY/WX    TMP DP  RH WIND       PRES   REMARKS
MANISTIQUE     CLOUDY    62  56  81 S13G20    29.90F
ESCANABA       PTCLDY    60  56  86 S9G18     29.86F
MENOMINEE      MOCLDY    62  57  83 S8        29.85F
SAWYER-GWINN   CLOUDY    58  55  91 S14       29.83F
$$
MIZ001>003-009>011-084-221100-
WESTERN UPPER MICHIGAN

CITY           SKY/WX    TMP DP  RH WIND       PRES   REMARKS
IRON MOUNTAIN  CLEAR     62  55  77 S9        29.81F
HOUGHTON       CLOUDY    64  56  75 S12       29.71F
COPPER HARBOR    N/A     63  56  78 SW9G17    29.70F
IRONWOOD       LGT RAIN  52  50  93 SW10      29.78R
$$

ABBREVIATIONS USED IN REMARKS
   TC - TEMPERATURE IN CELSIUS
  WCI - WIND CHILL INDEX
   HX - HEAT INDEX
  VSB - VISIBILITY





USA.gov is the U.S. government's official web portal to all federal, state and local government web resources and services.